Overview Statistics Trail Chart Weather Telemetry Raw packets
 

This is the latest recevied weather packets stored in our database for station/object DK6GC-10. If no packets are shown the sender has not sent any weather packets the latest 10 day(s).

<< 32 33 34 35 36 37 38 >>
Time Temp. Humidity Pressure Rain* Wind** Luminosity Snow
1787931917 25° C 47% 1013.6 hPa - - - -
1787931022 25.56° C 46% 1013.5 hPa - - - -
1787930117 26.11° C 52% 1013.5 hPa - - - -
1787929217 25.56° C 56% 1013.6 hPa - - - -
1787928317 25.56° C 59% 1013.6 hPa - - - -
1787927416 24.44° C 65% 1013.7 hPa - - - -
1787926516 25.56° C 62% 1013.7 hPa - - - -
1787925616 25.56° C 61% 1013.8 hPa - - - -
1787924716 25.56° C 61% 1013.7 hPa - - - -
1787923816 26.67° C 60% 1013.9 hPa - - - -
1787922916 26.67° C 65% 1014 hPa - - - -
1787922015 26.67° C 64% 1013.9 hPa - - - -
1787921114 25° C 72% 1014.2 hPa - - - -
1787920214 25.56° C 69% 1014.2 hPa - - - -
1787919314 25° C 73% 1014.3 hPa - - - -
1787918417 25° C 74% 1014.3 hPa - - - -
1787917517 25° C 76% 1014.3 hPa - - - -
1787916617 25° C 80% 1014.5 hPa - - - -
1787915717 25° C 79% 1014.2 hPa - - - -
1787914816 24.44° C 83% 1013.8 hPa - - - -
1787913916 25° C 84% 1013.8 hPa - - - -
1787913016 25° C 85% 1013.9 hPa - - - -
1787912116 25° C 88% 1013.9 hPa - - - -
1787911216 24.44° C 94% 1013.7 hPa - - - -
1787910316 24.44° C 92% 1013.6 hPa - - - -

* Rain since midnight (hover to see other rain measurements)
** Current wind speed in m/s (hover to see current wind gust speed)